• In Hungary
  • List of Countries
  • For 7 days
  • Water Temperature
  • Satellite Maps
  • Weather Map
  • News
  • Weather Widgets
  • user-avatar
    Login

    Hourly Weather Tel Aviv

    Today, 21 November, Tuesday

    Time Temperature Precipitation Wind Pressure Humidity
    00:00 +19°C° 0.5 mm 5 mps 760 mmHg 66%
    01:00 +19°C° 0.5 mm 5 mps 759 mmHg 67%
    02:00 +19°C° 0 mm 6 mps 759 mmHg 71%
    03:00 +19°C° 1.2 mm 6 mps 759 mmHg 72%
    04:00 +19°C° 1.2 mm 6 mps 759 mmHg 73%
    05:00 +18°C° 1.2 mm 7 mps 759 mmHg 74%
    06:00 +18°C° 1 mm 7 mps 759 mmHg 73%
    07:00 +20°C° 1 mm 7 mps 760 mmHg 71%
    08:00 +20°C° 0 mm 7 mps 759 mmHg 69%
    09:00 +20°C° 1 mm 7 mps 760 mmHg 68%
    10:00 +20°C° 1 mm 8 mps 760 mmHg 67%
    11:00 +21°C° 1 mm 8 mps 760 mmHg 66%
    12:00 +21°C° 0.4 mm 8 mps 760 mmHg 64%
    13:00 +19°C° 0.4 mm 9 mps 760 mmHg 63%
    14:00 +21°C° 0 mm 8 mps 759 mmHg 60%
    15:00 +20°C° 0.1 mm 8 mps 759 mmHg 60%
    16:00 +19°C° 0.1 mm 9 mps 760 mmHg 61%
    17:00 +18°C° 0.1 mm 9 mps 760 mmHg 61%
    18:00 +18°C° 0 mm 9 mps 760 mmHg 62%
    19:00 +17°C° 0 mm 8 mps 760 mmHg 62%
    20:00 +17°C° 0 mm 8 mps 761 mmHg 63%
    21:00 +17°C° 0.1 mm 8 mps 761 mmHg 62%
    22:00 +17°C° 0.1 mm 8 mps 761 mmHg 62%
    23:00 +16°C° 0.1 mm 7 mps 761 mmHg 62%

    Tomorrow, 22 November, Wednesday

    Time Temperature Precipitation Wind Pressure Humidity
    00:00 +16°C° 0.1 mm 7 mps 761 mmHg 62%
    01:00 +16°C° 0.1 mm 7 mps 761 mmHg 62%
    02:00 +16°C° 0.1 mm 7 mps 761 mmHg 62%
    03:00 +16°C° 0.1 mm 7 mps 761 mmHg 63%
    04:00 +16°C° 0.1 mm 7 mps 761 mmHg 64%
    05:00 +16°C° 0.1 mm 6 mps 761 mmHg 64%
    06:00 +16°C° 0.1 mm 6 mps 761 mmHg 62%
    07:00 +16°C° 0.1 mm 6 mps 762 mmHg 61%
    08:00 +17°C° 0.1 mm 6 mps 762 mmHg 59%
    09:00 +17°C° 0.2 mm 6 mps 762 mmHg 57%
    10:00 +19°C° 0.2 mm 6 mps 762 mmHg 56%
    11:00 +18°C° 0.2 mm 7 mps 762 mmHg 54%
    12:00 +18°C° 0.3 mm 7 mps 762 mmHg 55%
    13:00 +18°C° 0.3 mm 7 mps 762 mmHg 56%
    14:00 +18°C° 0.3 mm 7 mps 762 mmHg 57%
    15:00 +19°C° 0.4 mm 6 mps 762 mmHg 59%
    16:00 +17°C° 0.4 mm 6 mps 762 mmHg 60%
    17:00 +17°C° 0.4 mm 5 mps 763 mmHg 62%
    18:00 +17°C° 0.4 mm 5 mps 763 mmHg 62%
    19:00 +18°C° 0.4 mm 4 mps 763 mmHg 63%
    20:00 +18°C° 0.4 mm 4 mps 763 mmHg 63%
    21:00 +18°C° 0.3 mm 3 mps 763 mmHg 64%
    22:00 +17°C° 0.3 mm 3 mps 763 mmHg 65%
    23:00 +17°C° 0.3 mm 2 mps 764 mmHg 66%

    Day after tomorrow, 23 November, Thursday

    Time Temperature Precipitation Wind Pressure Humidity
    00:00 +17°C° 0.2 mm 2 mps 764 mmHg 66%
    01:00 +17°C° 0.2 mm 2 mps 764 mmHg 67%
    02:00 +16°C° 0.2 mm 2 mps 764 mmHg 67%
    03:00 +16°C° 0.2 mm 2 mps 764 mmHg 69%
    04:00 +16°C° 0.2 mm 2 mps 764 mmHg 70%
    05:00 +16°C° 0.2 mm 2 mps 764 mmHg 72%
    06:00 +16°C° 0.1 mm 2 mps 764 mmHg 70%
    07:00 +16°C° 0.1 mm 2 mps 765 mmHg 69%
    08:00 +17°C° 0.1 mm 2 mps 765 mmHg 67%
    09:00 +17°C° 0.1 mm 2 mps 765 mmHg 63%
    10:00 +19°C° 0.1 mm 1 mps 765 mmHg 58%
    11:00 +20°C° 0.1 mm 1 mps 765 mmHg 54%
    12:00 +20°C° 0 mm 1 mps 764 mmHg 53%
    13:00 +19°C° 0 mm 2 mps 764 mmHg 51%
    14:00 +19°C° 0 mm 2 mps 764 mmHg 50%
    15:00 +19°C° 0 mm 2 mps 764 mmHg 51%
    16:00 +19°C° 0 mm 2 mps 764 mmHg 52%
    17:00 +19°C° 0 mm 2 mps 764 mmHg 52%
    18:00 +18°C° 0 mm 2 mps 764 mmHg 54%
    19:00 +18°C° 0 mm 2 mps 764 mmHg 55%
    20:00 +18°C° 0 mm 2 mps 765 mmHg 57%
    21:00 +17°C° 0 mm 2 mps 765 mmHg 58%
    22:00 +17°C° 0 mm 2 mps 765 mmHg 58%
    23:00 +18°C° 0 mm 1 mps 765 mmHg 59%

    24 November, Friday

    Time Temperature Precipitation Wind Pressure Humidity
    00:00 +16°C° 0 mm 2 mps 765 mmHg 60%
    01:00 +16°C° 0 mm 2 mps 765 mmHg 61%
    02:00 +16°C° 0 mm 2 mps 765 mmHg 62%
    03:00 +16°C° 0 mm 2 mps 765 mmHg 62%
    04:00 +15°C° 0 mm 2 mps 765 mmHg 63%
    05:00 +15°C° 0 mm 2 mps 765 mmHg 63%
    06:00 +16°C° 0 mm 2 mps 765 mmHg 60%
    07:00 +16°C° 0 mm 2 mps 765 mmHg 58%
    08:00 +17°C° 0 mm 3 mps 766 mmHg 55%
    09:00 +18°C° 0 mm 2 mps 766 mmHg 52%
    10:00 +19°C° 0 mm 2 mps 766 mmHg 49%
    11:00 +20°C° 0 mm 2 mps 766 mmHg 46%
    12:00 +20°C° 0 mm 2 mps 765 mmHg 46%
    13:00 +20°C° 0 mm 2 mps 765 mmHg 46%
    14:00 +21°C° 0 mm 2 mps 765 mmHg 46%
    15:00 +20°C° 0 mm 2 mps 765 mmHg 49%
    16:00 +20°C° 0 mm 2 mps 765 mmHg 52%
    17:00 +19°C° 0 mm 2 mps 765 mmHg 55%
    18:00 +19°C° 0 mm 2 mps 765 mmHg 57%
    19:00 +19°C° 0 mm 2 mps 765 mmHg 60%
    20:00 +18°C° 0 mm 2 mps 766 mmHg 62%
    21:00 +18°C° 0 mm 2 mps 766 mmHg 63%
    22:00 +18°C° 0 mm 2 mps 766 mmHg 64%
    23:00 +18°C° 0 mm 2 mps 766 mmHg 65%

    25 November, Saturday

    Time Temperature Precipitation Wind Pressure Humidity
    00:00 +17°C° 0 mm 2 mps 766 mmHg 66%
    01:00 +17°C° 0 mm 2 mps 766 mmHg 66%
    02:00 +17°C° 0 mm 2 mps 765 mmHg 66%
    03:00 +17°C° 0 mm 2 mps 765 mmHg 67%
    04:00 +17°C° 0 mm 3 mps 765 mmHg 67%
    05:00 +16°C° 0 mm 3 mps 765 mmHg 67%
    06:00 +17°C° 0 mm 3 mps 765 mmHg 63%
    07:00 +18°C° 0 mm 3 mps 765 mmHg 60%
    08:00 +18°C° 0 mm 3 mps 765 mmHg 57%
    09:00 +19°C° 0 mm 3 mps 765 mmHg 49%
    10:00 +21°C° 0 mm 4 mps 765 mmHg 42%
    11:00 +22°C° 0 mm 4 mps 765 mmHg 35%
    12:00 +22°C° 0 mm 4 mps 764 mmHg 33%
    13:00 +24°C° 0 mm 3 mps 764 mmHg 30%
    14:00 +24°C° 0 mm 3 mps 763 mmHg 28%
    15:00 +24°C° 0 mm 3 mps 763 mmHg 30%
    16:00 +22°C° 0 mm 4 mps 763 mmHg 32%
    17:00 +22°C° 0 mm 4 mps 763 mmHg 34%
    18:00 +21°C° 0 mm 4 mps 763 mmHg 34%
    19:00 +21°C° 0 mm 4 mps 763 mmHg 35%
    20:00 +20°C° 0 mm 5 mps 763 mmHg 36%
    21:00 +20°C° 0 mm 5 mps 763 mmHg 36%
    22:00 +20°C° 0 mm 4 mps 763 mmHg 36%
    23:00 +20°C° 0 mm 4 mps 763 mmHg 37%

    26 November, Sunday

    Time Temperature Precipitation Wind Pressure Humidity
    00:00 +19°C° 0 mm 4 mps 763 mmHg 37%
    01:00 +19°C° 0 mm 5 mps 763 mmHg 36%
    02:00 +19°C° 0 mm 5 mps 763 mmHg 36%
    03:00 +19°C° 0 mm 5 mps 763 mmHg 37%
    04:00 +17°C° 0 mm 5 mps 763 mmHg 37%
    05:00 +17°C° 0 mm 5 mps 763 mmHg 38%
    06:00 +19°C° 0 mm 5 mps 763 mmHg 38%
    07:00 +19°C° 0 mm 5 mps 763 mmHg 38%
    08:00 +19°C° 0 mm 5 mps 763 mmHg 38%
    09:00 +21°C° 0 mm 4 mps 763 mmHg 36%
    10:00 +22°C° 0 mm 4 mps 763 mmHg 34%
    11:00 +23°C° 0 mm 4 mps 763 mmHg 32%
    12:00 +24°C° 0 mm 3 mps 763 mmHg 31%
    13:00 +24°C° 0 mm 2 mps 763 mmHg 31%
    14:00 +25°C° 0 mm 2 mps 762 mmHg 30%
    15:00 +24°C° 0 mm 2 mps 763 mmHg 33%
    16:00 +23°C° 0 mm 2 mps 763 mmHg 35%
    17:00 +22°C° 0 mm 3 mps 763 mmHg 37%
    18:00 +21°C° 0 mm 3 mps 763 mmHg 38%
    19:00 +21°C° 0 mm 3 mps 764 mmHg 39%
    20:00 +20°C° 0 mm 3 mps 764 mmHg 41%
    21:00 +20°C° 0 mm 3 mps 764 mmHg 42%
    22:00 +19°C° 0 mm 3 mps 764 mmHg 43%
    23:00 +19°C° 0 mm 3 mps 764 mmHg 45%
    Show more